N2IC Weather Reports


Display with metric or nautical units.
time (UTC)temp
F
wind
direction
speed
MPH
gust
MPH
rain 1hr
in
rain 24hr
in
rain mn
in
humidity
%
barometer
mb
20260506035002 52 270 8.0 14.0 0.00 0.01 0.00 53
20260506034002 52 270 10.0 14.0 0.00 0.01 0.00 52
20260506033426 52 248 10.0 18.0 0.00 0.01 0.00 51
20260506032001 53 270 11.0 17.0 0.00 0.01 0.00 51
20260506031002 53 270 20.0 20.0 0.00 0.01 0.00 50
20260506030002 53 270 12.0 16.0 0.00 0.01 0.00 50
20260506025001 53 270 14.0 16.0 0.00 0.01 0.00 49
20260506024426 54 225 14.0 16.0 0.00 0.01 0.00 48
20260506023002 54 248 14.0 14.0 0.00 0.01 0.00 47
20260506022002 54 270 11.0 15.0 0.00 0.01 0.00 46
20260506021001 55 248 14.0 20.0 0.00 0.01 0.00 44
20260506020425 56 248 22.0 22.0 0.00 0.01 0.00 41
20260506015002 56 225 16.0 26.0 0.00 0.01 0.00 39
20260506014002 56 202 14.0 28.0 0.00 0.01 0.00 37
20260506013001 56 248 18.0 27.0 0.00 0.01 0.00 37
20260506012002 56 248 18.0 24.0 0.00 0.01 0.00 37
20260506011002 57 225 22.0 26.0 0.00 0.01 0.00 36
20260506010002 58 270 18.0 24.0 0.00 0.01 0.00 35
20260506005001 58 248 16.0 26.0 0.00 0.01 0.00 38
20260506004002 58 248 32.0 32.0 0.00 0.01 0.00 38
20260506003002 59 248 26.0 34.0 0.00 0.01 0.00 37
20260506002002 60 248 22.0 28.0 0.00 0.01 0.00 37
20260506001001 61 202 16.0 34.0 0.00 0.01 0.00 37
20260506000002 61 202 20.0 33.0 0.00 0.01 0.00 38
20260505235427 61 225 21.0 27.0 0.00 0.01 0.00 39
20260505234001 60 202 15.0 20.0 0.00 0.01 0.00 42
20260505233002 59 248 18.0 23.0 0.00 0.01 0.00 43
20260505232002 61 225 25.0 25.0 0.00 0.01 0.00 42
20260505231001 60 248 27.0 27.0 0.00 0.01 0.00 45
20260505230427 58 248 20.0 25.0 0.00 0.01 0.00 48
20260505225002 58 248 22.0 27.0 0.00 0.01 0.00 49
20260505224002 59 202 12.0 23.0 0.00 0.01 0.00 50
20260505223001 59 202 15.0 20.0 0.00 0.01 0.00 52
20260505222001 59 225 14.0 24.0 0.00 0.01 0.00 55
20260505221002 60 225 19.0 20.0 0.00 0.01 0.00 53
20260505220002 59 202 17.0 24.0 0.00 0.01 0.00 56
20260505215001 58 225 11.0 16.0 0.00 0.01 0.00 60
20260505214002 54 270 10.0 16.0 0.00 0.01 0.00 69
20260505213001 52 270 9.0 22.0 0.00 0.01 0.00 72
20260505212002 53 270 19.0 21.0 0.00 0.01 0.00 64
20260505211002 55 202 20.0 23.0 0.00 0.01 0.00 55
20260505210002 56 248 6.0 14.0 0.00 0.01 0.00 56
20260505205002 57 248 11.0 16.0 0.00 0.01 0.00 55
20260505204001 56 202 10.0 14.0 0.00 0.01 0.00 56
20260505203426 59 270 9.0 17.0 0.00 0.01 0.00 52
20260505202002 57 248 18.0 22.0 0.00 0.01 0.00 56
20260505201001 56 248 14.0 23.0 0.00 0.01 0.00 57
20260505200002 57 225 19.0 20.0 0.00 0.01 0.00 57
20260505195001 58 225 17.0 24.0 0.00 0.01 0.00 54
20260505194002 56 225 14.0 18.0 0.00 0.01 0.00 63
20260505193001 55 248 17.0 21.0 0.00 0.01 0.00 65
20260505192002 55 225 14.0 18.0 0.00 0.01 0.00 67
20260505191002 54 248 13.0 19.0 0.00 0.01 0.00 72
20260505190002 52 248 11.0 18.0 0.00 0.01 0.00 73
20260505185002 52 248 17.0 17.0 0.00 0.01 0.00 74
20260505184001 52 248 11.0 23.0 0.00 0.01 0.00 74
20260505183002 53 270 20.0 23.0 0.00 0.01 0.00 72
20260505182002 52 270 14.0 20.0 0.00 0.01 0.00 75
20260505181001 52 270 10.0 17.0 0.00 0.01 0.00 79
20260505180001 52 248 17.0 18.0 0.00 0.01 0.00 77
20260505175002 51 248 16.0 16.0 0.00 0.01 0.00 80
20260505174001 52 202 15.0 21.0 0.00 0.01 0.00 80
20260505173002 51 270 22.0 24.0 0.00 0.01 0.00 81
20260505172001 50 225 16.0 18.0 0.00 0.01 0.00 84
20260505171430 50 270 17.0 18.0 0.00 0.01 0.00 85
20260505170001 49 248 14.0 22.0 0.00 0.01 0.00 88
20260505165002 49 270 14.0 18.0 0.00 0.01 0.00 91
20260505164001 47 248 12.0 20.0 0.00 0.01 0.00 93
20260505163002 47 248 10.0 20.0 0.00 0.01 0.00 93
20260505162001 48 270 10.0 13.0 0.00 0.01 0.00 90
20260505161002 47 248 10.0 15.0 0.00 0.01 0.00 90
20260505152002 47 180 3.0 11.0 0.00 0.00 0.00 87
20260505151001 46 225 7.0 12.0 0.00 0.00 0.00 87
20260505125001 43 292 17.0 23.0 0.00 0.00 0.00 89
20260505124002 43 270 21.0 22.0 0.00 0.00 0.00 88
20260505123001 44 270 20.0 24.0 0.00 0.00 0.00 86
20260505122002 46 270 28.0 30.0 0.00 0.00 0.00 77
20260505121001 47 248 14.0 25.0 0.00 0.00 0.00 74
20260505120002 47 270 14.0 25.0 0.00 0.00 0.00 75
20260505115002 47 270 12.0 22.0 0.00 0.00 0.00 75
20260505114425 48 270 19.0 29.0 0.00 0.00 0.00 73
20260505113002 48 270 10.0 20.0 0.00 0.00 0.00 73
20260505112427 48 270 14.0 17.0 0.00 0.00 0.00 75
20260505111002 48 270 17.0 20.0 0.00 0.00 0.00 76